Location: Beddau
(51.5575°N, 3.3561°W)
Time: 11:35:53
(UTC+00:00)

SPOT 1/Viking Rocket - Pass Details

Date: 03 March 2021
Orbit: 778 x 793 km, 98.4° (Epoch: 16 April)

Event Time Altitude Azimuth Distance (km) Brightness Sun altitude
Exits shadow 20:29:57 40° 46° (NE) 1,150 4.2 -24.1°
Drops below altitude 10° 20:34:10 10° 356° (N) 2,354 6.3 -24.7°
Sets 20:36:35 0° 350° (N) 3,289 7.2 -25.1°
